sat.trackr.live / text

‹ back to catalog

STARLINK-36163

NORAD 67008 · 2025-293F

PAYLOAD ACTIVE UNKNOWN

§ Identity

Operator
Country
US
Launch date
2025-12-10
Launch site
AFWTR
Launch vehicle
Mass (kg)
RCS (m²)

Purposes: comms

External: N2YO · Heavens-Above · Gunter

§ Orbital elements

Epoch: 2026-05-25T01:02:23.699904Z

Period
96.11 min
Inclination
70.0008°
Eccentricity
0.0003502
Mean motion
14.98328628 rev/d
Perigee alt
569.6 km
Apogee alt
574.5 km
Semi-major
6,950.2 km
B*
9.8045e-5
RAAN
261.9883°
Arg perigee
265.4017°
Mean anomaly
94.6742°
Rev number
2,632

§ Raw data

STARLINK-361631 67008U 25293F   26145.04332986  .00001077  00000+0  98045-4 0  99992 67008  70.0008 261.9883 0003502 265.4017  94.6742 14.98328628 26326

JSON: /api/v1/satellites/67008 · /tle

For live sub-satellite position, see the globe view (requires WebGL).

§ Visibility from observer

Set your observer location to see the next 7 days of passes ≥ 10°. The values pass through the URL so the page stays shareable.

No JS? Fill the form by hand. The geolocation button needs JavaScript.